Location: Newark
(42.8481°N, 0.4872°E)
Time: 14:12:45
(UTC+00:00)

Transit 2A - Visible Passes

Search period start: 30 October 2020 00:00
Search period end: 09 November 2020 00:00
Orbit: 593 x 966 km, 66.7° (Epoch: 29 October)

Date Brightness Start Highest point End Pass type
(mag) Time Alt. Az. Time Alt. Az. Time Alt. Az.
05 Nov 8.5 05:49:58 10° N 05:52:39 13° NNE 05:55:13 10° ENE visible
06 Nov 8.7 05:16:51 10° NNE 05:18:01 11° NNE 05:19:09 10° NE visible
08 Nov 8.0 05:49:49 10° N 05:54:10 23° NE 05:58:10 10° E visible
